SCP
0 0 0 0 1 1 1 0 1 1 1 1 1 0 0 0 0 0 0 0 0 0 0 0 -0 -0 -0 -0 -0 -0 -0 -0 -0 -0 -0 -0 -0 -0 -0 -0 0 -0 -0
0 0 0 0 1 2 2 1 1 2 2 1 1 1 1 1 1 1 0 0 0 0 0 0 0 -0 0 0 -0 -0 -0 -0 -0 -0 -0 -0 -0 -0 -0 0 -0 -0 -0
0 0 0 0 0 1 1 2 2 2 2 2 1 1 1 1 1 1 1 0 0 0 0 0 0 0 0 0 0 0 -0 -0 -0 -0 -0 -0 -0 -0 -0 -0 -0 -0 -0
0 0 0 0 0 0 1 1 1 1 2 2 1 1 1 1 1 1 1 1 1 0 0 0 0 0 0 0 0 0 0 -0 -0 -0 0 0 -0 -0 -0 -0 -0 -0 -0
0 0 -0 0 0 0 0 1 1 1 1 1 2 1 1 1 1 1 1 1 1 0 1 0 0 0 0 0 0 0 0 0 -0 -0 -0 0 0 0 -0 -0 -0 -0 -0
0 0 0 0 0 0 0 0 0 1 1 1 1 2 1 1 1 1 1 1 1 1 1 0 0 0 0 0 0 0 0 0 -0 0 0 0 0 -0 -0 -0 -0 0 0
0 0 0 0 0 0 0 0 0 0 1 1 1 1 1 1 1 1 1 1 1 1 1 1 0 0 0 0 0 0 0 0 0 0 0 0 0 0 -0 0 0 0 0
0 0 -0 -0 0 0 0 0 0 0 0 0 0 1 1 2 2 1 1 1 1 1 1 1 1 1 0 0 0 0 0 0 0 0 0 0 0 0 0 0 0 0 0
0 0 -0 -0 -0 0 0 0 0 0 0 0 0 0 1 1 1 1 1 1 1 1 1 1 1 1 0 0 0 0 0 0 0 0 0 0 0 0 0 0 0 0 0
0 0 0 0 -0 -0 -0 0 0 0 0 0 0 0 0 1 1 1 1 1 1 1 1 1 1 0 0 0 0 0 0 -0 0 0 0 0 0 0 0 0 0 0 0
0 0 0 0 -0 -0 -0 -0 0 0 0 0 0 0 0 1 1 1 1 1 1 1 1 1 1 0 0 0 0 0 0 0 0 0 0 0 0 0 0 0 0 0 0
-0 -0 -0 -0 -0 -0 -0 -0 -0 0 0 0 0 1 0 1 1 2 1 0 1 1 0 1 0 0 0 0 0 0 0 0 0 0 0 0 0 0 0 0 0 0 0
0 -0 -0 -0 -0 -0 -0 -0 -0 -0 -0 0 0 1 1 1 1 1 2 0 1 0 1 1 1 1 0 1 0 0 0 0 0 0 0 0 0 0 0 0 0 0 0
0 0 0 0 0 -0 -0 -0 -0 -0 -0 0 0 0 1 1 1 1 2 1 1 1 1 1 1 1 0 1 0 0 0 0 0 0 0 0 0 0 0 0 0 0 0
-0 -0 0 0 -0 0 -0 -0 -0 -0 -0 0 0 0 0 0 1 1 2 2 2 1 1 2 1 1 0 0 0 0 0 0 0 0 0 0 0 0 0 0 0 0 0
-0 -0 -0 -0 -0 -0 -0 -0 -0 -0 -0 -0 0 0 0 0 0 1 2 2 2 2 1 1 1 1 0 1 0 0 0 0 0 0 0 0 0 0 0 0 0 0 0
0 0 -0 -0 -0 -0 -0 0 -0 -0 -0 0 0 0 0 0 1 0 1 2 3 3 2 1 1 0 0 0 0 0 0 0 0 0 0 0 0 0 0 0 0 0 0
0 0 0 0 0 0 -0 -0 0 -0 -0 0 0 0 0 0 0 0 0 1 2 3 3 1 0 0 0 0 0 0 0 0 0 0 0 0 0 0 0 0 0 0 0
0 0 0 0 0 -0 -0 -0 0 0 -0 0 0 0 0 0 0 1 1 0 1 2 1 0 0 0 0 0 0 0 0 0 0 0 0 0 0 0 0 0 0 0 0
0 0 0 0 0 0 0 0 0 -0 0 -0 0 0 0 0 0 1 1 0 0 1 0 0 0 0 0 0 0 0 0 0 0 0 0 0 0 0 0 0 0 0 0
0 0 0 0 0 0 0 0 -0 -0 -0 -0 -0 -0 0 0 0 0 1 0 0 0 0 0 0 0 0 0 0 0 0 0 0 0 0 0 0 0 0 0 0 0 0
0 0 0 0 0 0 0 0 0 0 0 -0 -0 0 0 0 0 0 1 0 0 0 0 0 0 0 0 0 0 0 0 0 0 0 0 0 0 0 0 0 0 0 0
0 0 0 0 0 0 0 0 0 0 0 -0 0 0 0 0 0 0 0 0 0 0 0 0 0 0 0 0 0 0 0 0 0 0 0 0 0 0 0 0 0 0 0
0 0 0 0 0 0 0 0 0 0 0 -0 -0 -0 0 0 0 0 0 0 0 0 0 0 0 0 0 0 0 0 0 0 0 0 0 0 0 0 0 0 0 0 0
0 0 0 0 0 0 0 0 0 0 0 0 -0 -0 0 0 0 0 0 0 0 0 0 0 0 0 0 0 0 0 0 0 0 0 0 0 0 0 0 0 0 0 0
0 0 0 0 0 0 0 0 0 0 0 0 -0 -0 0 0 0 0 0 0 0 0 0 0 0 0 0 0 0 0 0 0 0 0 0 0 0 0 0 0 0 0 0
Wind_Speed_500mb
28 30 30 25 17 23 35 49 51 54 54 52 50 50 49 52 53 52 51 50 47 45 41 39 39 36 32 27 26 28 32 35 35 33 34 37 36 38 38 40 41 39 40
23 32 27 23 14 14 28 43 55 59 59 57 55 54 54 56 56 55 54 52 50 47 43 39 40 37 33 29 28 31 36 37 33 33 34 36 37 39 40 39 38 44 41
25 29 28 26 21 6 24 38 51 57 62 63 60 58 58 59 61 59 58 55 53 50 45 42 41 39 35 33 30 31 37 37 35 35 35 36 38 39 40 37 36 40 40
24 25 26 27 24 7 19 31 49 56 61 67 64 63 62 62 64 63 61 60 57 53 48 45 44 41 38 35 32 32 36 38 39 39 32 31 33 37 36 35 38 38 38
25 23 28 25 22 11 20 30 40 54 60 67 70 69 67 67 67 67 65 64 61 57 50 48 47 44 41 39 36 34 37 38 42 39 25 29 29 35 36 37 36 36 36
28 31 31 30 26 19 19 31 39 50 62 67 73 75 74 73 72 71 68 66 64 61 56 51 49 47 44 42 40 38 39 39 47 32 32 29 30 33 34 35 36 36 35
32 34 39 39 38 29 26 34 39 47 59 68 72 79 79 79 77 76 72 70 67 63 59 54 52 49 48 45 43 44 43 42 39 32 34 38 31 34 35 34 34 35 34
42 43 43 51 49 45 36 40 43 48 57 69 73 80 82 83 83 81 78 74 71 67 64 59 56 53 51 48 47 47 47 47 40 30 32 33 40 37 34 35 34 32 34
46 51 49 47 58 51 51 44 49 55 61 67 76 79 85 87 87 85 84 79 76 71 69 65 62 57 55 52 51 50 50 52 35 31 33 35 40 45 40 35 33 32 31
49 49 55 55 47 55 60 49 52 54 56 72 74 79 84 88 90 89 90 85 83 77 74 72 66 62 61 58 55 52 52 49 44 49 38 36 45 42 39 38 35 30 30
58 51 53 64 69 69 66 61 53 54 59 67 74 73 79 86 90 90 91 89 86 80 78 76 69 68 66 64 58 56 55 56 44 44 45 43 46 48 42 38 35 35 27
61 56 51 60 78 77 76 71 64 56 53 52 62 69 77 81 92 92 90 91 89 84 82 80 73 72 64 68 63 60 62 58 52 48 47 48 49 44 38 35 32 32 33
59 58 54 54 59 69 62 74 80 67 64 53 51 58 74 81 89 92 89 90 92 89 86 83 79 75 70 68 74 72 67 57 55 48 45 49 49 40 38 37 34 34 32
58 58 56 54 58 61 60 61 73 77 73 62 54 38 60 80 88 94 93 93 95 95 91 88 83 83 77 74 76 78 72 65 59 52 55 54 49 42 38 37 37 36 35
63 60 57 54 55 54 59 58 68 76 80 75 66 54 55 81 89 94 100 99 97 100 97 96 93 91 83 80 80 82 77 73 63 57 55 56 51 44 39 37 37 37 36
61 60 56 56 56 55 59 60 60 71 77 85 80 69 64 52 91 96 103 106 102 103 101 101 100 99 90 89 85 84 84 76 60 56 59 58 52 47 42 40 39 38 37
60 57 58 55 56 57 57 57 54 60 59 81 87 84 71 69 60 93 95 107 103 105 105 102 94 102 97 98 93 84 89 75 68 65 64 61 56 49 45 43 42 42 38
54 54 54 54 56 59 59 57 56 56 58 54 70 90 82 72 69 71 80 93 109 107 106 105 105 105 104 105 106 94 99 95 85 74 66 59 58 53 49 48 45 42 40
45 48 50 52 57 60 62 63 66 63 64 69 70 85 89 79 74 63 80 98 106 109 113 108 106 106 110 113 113 100 100 104 96 81 72 62 57 57 56 52 48 46 44
40 42 46 49 52 54 57 62 66 64 65 64 72 72 85 87 79 69 77 89 69 99 108 112 107 108 109 114 108 104 105 100 98 92 80 67 60 58 56 57 53 49 47
46 47 47 48 52 52 53 55 58 64 67 70 72 85 90 92 83 77 78 78 79 70 91 109 106 110 103 111 108 99 86 91 79 85 83 73 65 61 61 57 56 53 48
54 54 56 56 58 55 57 60 60 64 64 61 63 68 64 91 91 88 77 77 80 90 71 115 114 113 117 115 104 102 59 58 69 55 76 74 72 73 68 58 61 54 55
59 58 58 59 60 61 59 61 65 65 68 67 72 73 85 72 83 90 80 85 80 88 96 104 97 109 118 106 121 69 32 24 54 63 61 73 71 74 69 65 64 59 57
61 58 60 60 62 65 63 62 65 68 68 72 71 70 77 61 75 87 82 86 94 89 98 97 110 110 105 125 117 96 79 72 45 42 56 74 69 70 71 68 66 62 59
59 59 59 61 61 62 66 64 67 69 75 75 69 68 65 71 71 79 88 94 93 94 92 99 107 106 103 110 119 107 97 79 75 72 62 70 72 71 71 69 66 63 60
59 59 58 61 65 61 64 67 73 76 79 73 74 75 70 71 75 83 90 96 91 92 96 96 89 96 90 110 96 107 101 78 83 82 73 89 67 64 65 64 66 62 62
Wind_Direction_500mb
2 358 346 349 324 257 243 240 245 248 233 222 213 208 205 199 198 197 194 190 188 185 183 181 172 172 171 171 166 162 158 151 152 154 154 147 152 148 146 145 141 151 144
9 7 353 1 343 269 247 238 238 236 231 225 216 211 206 202 200 201 198 194 192 189 187 187 179 176 173 171 169 161 159 155 154 155 155 153 149 148 141 138 147 151 149
8 4 352 359 351 249 252 242 236 234 231 227 219 214 209 206 201 203 202 198 196 194 192 189 186 180 178 173 175 167 166 163 155 149 145 149 150 152 149 152 153 151 154
0 359 344 351 347 278 239 247 238 238 234 228 222 217 213 210 206 205 205 202 200 198 196 192 191 186 181 178 178 170 166 164 158 148 129 145 150 158 158 159 154 152 154
347 337 329 336 346 316 237 240 244 238 235 229 226 221 216 213 210 208 209 205 202 201 198 196 193 192 184 183 180 175 169 163 157 136 159 152 158 158 161 162 156 156 156
336 326 316 316 324 329 252 242 237 243 238 235 228 224 219 214 213 210 210 208 205 204 201 198 197 195 190 188 183 178 173 166 157 139 157 170 157 157 162 164 166 163 160
323 327 316 301 302 311 303 250 239 237 243 239 232 226 222 217 214 212 212 209 207 207 204 201 200 197 195 193 189 181 175 168 155 168 164 161 182 166 168 161 164 166 162
314 310 314 307 295 294 295 292 244 239 236 244 238 228 224 220 216 213 212 211 209 208 206 202 201 200 199 196 194 185 178 169 154 172 173 161 179 174 173 169 167 165 162
306 301 303 310 302 295 290 282 280 237 236 234 241 233 224 222 220 217 215 212 212 209 207 205 204 203 204 199 198 189 182 177 160 173 172 185 179 178 175 171 172 169 169
305 303 292 296 304 296 288 285 275 277 244 234 234 234 230 223 224 221 219 215 214 211 207 208 206 205 208 202 199 193 187 179 172 184 178 189 174 177 179 179 179 188 189
297 298 300 289 292 295 292 287 274 271 265 242 233 232 231 228 226 226 224 219 217 216 211 212 209 207 207 202 199 196 188 178 185 189 185 192 175 176 182 183 188 189 187
296 297 296 292 287 289 289 288 280 275 280 254 237 235 230 230 228 227 226 222 220 218 215 214 211 207 202 199 198 198 192 183 195 187 190 195 191 190 189 194 197 197 199
290 293 294 292 289 287 291 286 281 276 275 265 240 233 234 230 232 228 226 223 220 218 216 214 211 205 201 200 198 197 195 191 196 189 199 201 198 203 200 202 203 208 206
285 286 288 289 289 287 287 286 281 274 271 268 254 231 240 234 231 229 225 225 220 218 216 213 211 209 204 202 204 199 197 195 193 190 205 196 200 206 209 212 214 214 213
281 281 281 283 283 283 282 281 278 275 268 266 262 246 229 238 234 230 226 226 222 220 215 213 211 210 208 203 208 202 200 199 193 194 205 198 204 211 215 217 214 211 208
280 278 277 276 276 277 278 279 279 275 268 263 263 255 244 239 234 232 228 225 224 221 217 214 214 213 212 204 208 204 203 199 192 197 204 202 207 212 216 212 209 207 208
279 277 275 273 272 272 273 274 278 279 272 262 259 259 254 241 246 234 222 224 222 223 220 217 213 218 213 208 210 207 203 194 194 200 206 206 208 210 211 209 206 206 207
279 278 276 274 271 268 268 268 268 267 262 261 262 257 253 250 240 236 229 225 225 219 220 218 214 214 214 212 206 207 205 207 207 203 206 206 209 208 207 208 207 207 202
284 283 281 277 274 272 270 267 265 265 261 258 253 254 251 250 246 240 234 231 217 216 216 216 215 216 214 212 210 209 208 210 211 205 205 207 208 209 206 205 205 203 200
289 288 286 283 277 272 269 268 265 261 257 258 254 247 252 250 248 241 239 244 236 215 211 214 215 216 220 215 211 207 204 204 210 210 208 207 205 204 204 205 204 206 203
290 290 287 285 279 275 270 266 264 265 262 262 265 264 249 246 249 241 239 241 239 216 198 215 216 215 201 203 211 195 201 203 195 200 205 205 202 195 204 205 198 202 203
291 289 285 281 278 274 269 265 261 261 259 259 260 254 253 247 244 245 239 236 233 214 228 213 221 206 207 202 204 196 177 179 188 182 195 200 200 198 202 199 198 198 197
291 289 284 279 274 271 265 265 260 259 259 258 254 253 248 239 245 244 240 235 226 220 220 223 227 211 213 205 211 203 169 177 179 186 194 197 200 200 201 199 200 200 200
293 289 285 280 275 270 267 261 257 255 255 254 253 255 262 243 242 243 241 235 229 230 223 229 225 219 219 213 207 205 208 203 178 177 200 192 198 200 201 202 203 203 203
293 291 286 282 276 270 268 258 255 254 253 250 249 251 255 233 238 233 237 230 226 232 231 230 232 223 232 221 208 198 218 206 199 182 178 189 195 196 201 203 208 206 206
296 293 288 283 278 272 265 258 253 253 248 248 244 242 243 239 237 230 232 229 227 230 229 228 229 226 243 228 228 213 214 207 197 191 186 187 187 198 202 203 208 209 210
Wind_Speed_850mb
28 30 30 25 17 23 35 49 51 54 54 52 50 50 49 52 53 52 51 50 47 45 41 39 39 36 32 27 26 28 32 35 35 33 34 37 36 38 38 40 41 39 40
23 32 27 23 14 14 28 43 55 59 59 57 55 54 54 56 56 55 54 52 50 47 43 39 40 37 33 29 28 31 36 37 33 33 34 36 37 39 40 39 38 44 41
25 29 28 26 21 6 24 38 51 57 62 63 60 58 58 59 61 59 58 55 53 50 45 42 41 39 35 33 30 31 37 37 35 35 35 36 38 39 40 37 36 40 40
24 25 26 27 24 7 19 31 49 56 61 67 64 63 62 62 64 63 61 60 57 53 48 45 44 41 38 35 32 32 36 38 39 39 32 31 33 37 36 35 38 38 38
25 23 28 25 22 11 20 30 40 54 60 67 70 69 67 67 67 67 65 64 61 57 50 48 47 44 41 39 36 34 37 38 42 39 25 29 29 35 36 37 36 36 36
28 31 31 30 26 19 19 31 39 50 62 67 73 75 74 73 72 71 68 66 64 61 56 51 49 47 44 42 40 38 39 39 47 32 32 29 30 33 34 35 36 36 35
32 34 39 39 38 29 26 34 39 47 59 68 72 79 79 79 77 76 72 70 67 63 59 54 52 49 48 45 43 44 43 42 39 32 34 38 31 34 35 34 34 35 34
42 43 43 51 49 45 36 40 43 48 57 69 73 80 82 83 83 81 78 74 71 67 64 59 56 53 51 48 47 47 47 47 40 30 32 33 40 37 34 35 34 32 34
46 51 49 47 58 51 51 44 49 55 61 67 76 79 85 87 87 85 84 79 76 71 69 65 62 57 55 52 51 50 50 52 35 31 33 35 40 45 40 35 33 32 31
49 49 55 55 47 55 60 49 52 54 56 72 74 79 84 88 90 89 90 85 83 77 74 72 66 62 61 58 55 52 52 49 44 49 38 36 45 42 39 38 35 30 30
58 51 53 64 69 69 66 61 53 54 59 67 74 73 79 86 90 90 91 89 86 80 78 76 69 68 66 64 58 56 55 56 44 44 45 43 46 48 42 38 35 35 27
61 56 51 60 78 77 76 71 64 56 53 52 62 69 77 81 92 92 90 91 89 84 82 80 73 72 64 68 63 60 62 58 52 48 47 48 49 44 38 35 32 32 33
59 58 54 54 59 69 62 74 80 67 64 53 51 58 74 81 89 92 89 90 92 89 86 83 79 75 70 68 74 72 67 57 55 48 45 49 49 40 38 37 34 34 32
58 58 56 54 58 61 60 61 73 77 73 62 54 38 60 80 88 94 93 93 95 95 91 88 83 83 77 74 76 78 72 65 59 52 55 54 49 42 38 37 37 36 35
63 60 57 54 55 54 59 58 68 76 80 75 66 54 55 81 89 94 100 99 97 100 97 96 93 91 83 80 80 82 77 73 63 57 55 56 51 44 39 37 37 37 36
61 60 56 56 56 55 59 60 60 71 77 85 80 69 64 52 91 96 103 106 102 103 101 101 100 99 90 89 85 84 84 76 60 56 59 58 52 47 42 40 39 38 37
60 57 58 55 56 57 57 57 54 60 59 81 87 84 71 69 60 93 95 107 103 105 105 102 94 102 97 98 93 84 89 75 68 65 64 61 56 49 45 43 42 42 38
54 54 54 54 56 59 59 57 56 56 58 54 70 90 82 72 69 71 80 93 109 107 106 105 105 105 104 105 106 94 99 95 85 74 66 59 58 53 49 48 45 42 40
45 48 50 52 57 60 62 63 66 63 64 69 70 85 89 79 74 63 80 98 106 109 113 108 106 106 110 113 113 100 100 104 96 81 72 62 57 57 56 52 48 46 44
40 42 46 49 52 54 57 62 66 64 65 64 72 72 85 87 79 69 77 89 69 99 108 112 107 108 109 114 108 104 105 100 98 92 80 67 60 58 56 57 53 49 47
46 47 47 48 52 52 53 55 58 64 67 70 72 85 90 92 83 77 78 78 79 70 91 109 106 110 103 111 108 99 86 91 79 85 83 73 65 61 61 57 56 53 48
54 54 56 56 58 55 57 60 60 64 64 61 63 68 64 91 91 88 77 77 80 90 71 115 114 113 117 115 104 102 59 58 69 55 76 74 72 73 68 58 61 54 55
59 58 58 59 60 61 59 61 65 65 68 67 72 73 85 72 83 90 80 85 80 88 96 104 97 109 118 106 121 69 32 24 54 63 61 73 71 74 69 65 64 59 57
61 58 60 60 62 65 63 62 65 68 68 72 71 70 77 61 75 87 82 86 94 89 98 97 110 110 105 125 117 96 79 72 45 42 56 74 69 70 71 68 66 62 59
59 59 59 61 61 62 66 64 67 69 75 75 69 68 65 71 71 79 88 94 93 94 92 99 107 106 103 110 119 107 97 79 75 72 62 70 72 71 71 69 66 63 60
59 59 58 61 65 61 64 67 73 76 79 73 74 75 70 71 75 83 90 96 91 92 96 96 89 96 90 110 96 107 101 78 83 82 73 89 67 64 65 64 66 62 62
Wind_Direction_850mb
2 358 346 349 324 257 243 240 245 248 233 222 213 208 205 199 198 197 194 190 188 185 183 181 172 172 171 171 166 162 158 151 152 154 154 147 152 148 146 145 141 151 144
9 7 353 1 343 269 247 238 238 236 231 225 216 211 206 202 200 201 198 194 192 189 187 187 179 176 173 171 169 161 159 155 154 155 155 153 149 148 141 138 147 151 149
8 4 352 359 351 249 252 242 236 234 231 227 219 214 209 206 201 203 202 198 196 194 192 189 186 180 178 173 175 167 166 163 155 149 145 149 150 152 149 152 153 151 154
0 359 344 351 347 278 239 247 238 238 234 228 222 217 213 210 206 205 205 202 200 198 196 192 191 186 181 178 178 170 166 164 158 148 129 145 150 158 158 159 154 152 154
347 337 329 336 346 316 237 240 244 238 235 229 226 221 216 213 210 208 209 205 202 201 198 196 193 192 184 183 180 175 169 163 157 136 159 152 158 158 161 162 156 156 156
336 326 316 316 324 329 252 242 237 243 238 235 228 224 219 214 213 210 210 208 205 204 201 198 197 195 190 188 183 178 173 166 157 139 157 170 157 157 162 164 166 163 160
323 327 316 301 302 311 303 250 239 237 243 239 232 226 222 217 214 212 212 209 207 207 204 201 200 197 195 193 189 181 175 168 155 168 164 161 182 166 168 161 164 166 162
314 310 314 307 295 294 295 292 244 239 236 244 238 228 224 220 216 213 212 211 209 208 206 202 201 200 199 196 194 185 178 169 154 172 173 161 179 174 173 169 167 165 162
306 301 303 310 302 295 290 282 280 237 236 234 241 233 224 222 220 217 215 212 212 209 207 205 204 203 204 199 198 189 182 177 160 173 172 185 179 178 175 171 172 169 169
305 303 292 296 304 296 288 285 275 277 244 234 234 234 230 223 224 221 219 215 214 211 207 208 206 205 208 202 199 193 187 179 172 184 178 189 174 177 179 179 179 188 189
297 298 300 289 292 295 292 287 274 271 265 242 233 232 231 228 226 226 224 219 217 216 211 212 209 207 207 202 199 196 188 178 185 189 185 192 175 176 182 183 188 189 187
296 297 296 292 287 289 289 288 280 275 280 254 237 235 230 230 228 227 226 222 220 218 215 214 211 207 202 199 198 198 192 183 195 187 190 195 191 190 189 194 197 197 199
290 293 294 292 289 287 291 286 281 276 275 265 240 233 234 230 232 228 226 223 220 218 216 214 211 205 201 200 198 197 195 191 196 189 199 201 198 203 200 202 203 208 206
285 286 288 289 289 287 287 286 281 274 271 268 254 231 240 234 231 229 225 225 220 218 216 213 211 209 204 202 204 199 197 195 193 190 205 196 200 206 209 212 214 214 213
281 281 281 283 283 283 282 281 278 275 268 266 262 246 229 238 234 230 226 226 222 220 215 213 211 210 208 203 208 202 200 199 193 194 205 198 204 211 215 217 214 211 208
280 278 277 276 276 277 278 279 279 275 268 263 263 255 244 239 234 232 228 225 224 221 217 214 214 213 212 204 208 204 203 199 192 197 204 202 207 212 216 212 209 207 208
279 277 275 273 272 272 273 274 278 279 272 262 259 259 254 241 246 234 222 224 222 223 220 217 213 218 213 208 210 207 203 194 194 200 206 206 208 210 211 209 206 206 207
279 278 276 274 271 268 268 268 268 267 262 261 262 257 253 250 240 236 229 225 225 219 220 218 214 214 214 212 206 207 205 207 207 203 206 206 209 208 207 208 207 207 202
284 283 281 277 274 272 270 267 265 265 261 258 253 254 251 250 246 240 234 231 217 216 216 216 215 216 214 212 210 209 208 210 211 205 205 207 208 209 206 205 205 203 200
289 288 286 283 277 272 269 268 265 261 257 258 254 247 252 250 248 241 239 244 236 215 211 214 215 216 220 215 211 207 204 204 210 210 208 207 205 204 204 205 204 206 203
290 290 287 285 279 275 270 266 264 265 262 262 265 264 249 246 249 241 239 241 239 216 198 215 216 215 201 203 211 195 201 203 195 200 205 205 202 195 204 205 198 202 203
291 289 285 281 278 274 269 265 261 261 259 259 260 254 253 247 244 245 239 236 233 214 228 213 221 206 207 202 204 196 177 179 188 182 195 200 200 198 202 199 198 198 197
291 289 284 279 274 271 265 265 260 259 259 258 254 253 248 239 245 244 240 235 226 220 220 223 227 211 213 205 211 203 169 177 179 186 194 197 200 200 201 199 200 200 200
293 289 285 280 275 270 267 261 257 255 255 254 253 255 262 243 242 243 241 235 229 230 223 229 225 219 219 213 207 205 208 203 178 177 200 192 198 200 201 202 203 203 203
293 291 286 282 276 270 268 258 255 254 253 250 249 251 255 233 238 233 237 230 226 232 231 230 232 223 232 221 208 198 218 206 199 182 178 189 195 196 201 203 208 206 206
296 293 288 283 278 272 265 258 253 253 248 248 244 242 243 239 237 230 232 229 227 230 229 228 229 226 243 228 228 213 214 207 197 191 186 187 187 198 202 203 208 209 210